#datetime,building,power
2024-04-24T00:00:00,mnr,8.11
2024-04-24T00:01:00,mnr,8.69
2024-04-24T00:02:00,mnr,7.09
2024-04-24T00:03:00,mnr,7.45
2024-04-24T00:04:00,mnr,7.46
2024-04-24T00:05:00,mnr,7.48
2024-04-24T00:06:00,mnr,7.56
2024-04-24T00:07:00,mnr,8.61
2024-04-24T00:08:00,mnr,8.57
2024-04-24T00:09:00,mnr,8.77
2024-04-24T00:10:00,mnr,7.48
2024-04-24T00:11:00,mnr,7.46
2024-04-24T00:12:00,mnr,7.51
2024-04-24T00:13:00,mnr,7.65
2024-04-24T00:14:00,mnr,7.79
2024-04-24T00:15:00,mnr,7.57
2024-04-24T00:16:00,mnr,7.61
2024-04-24T00:17:00,mnr,7.58
2024-04-24T00:18:00,mnr,7.55
2024-04-24T00:19:00,mnr,7.42
2024-04-24T00:20:00,mnr,9.22
2024-04-24T00:21:00,mnr,7.37
2024-04-24T00:22:00,mnr,7.39
2024-04-24T00:23:00,mnr,7.65
2024-04-24T00:24:00,mnr,7.21
2024-04-24T00:25:00,mnr,7.51
2024-04-24T00:26:00,mnr,7.95
2024-04-24T00:27:00,mnr,7.60
2024-04-24T00:28:00,mnr,8.35
2024-04-24T00:29:00,mnr,8.42
2024-04-24T00:30:00,mnr,7.44
2024-04-24T00:31:00,mnr,7.52
2024-04-24T00:32:00,mnr,7.38
2024-04-24T00:33:00,mnr,7.56
2024-04-24T00:34:00,mnr,7.65
2024-04-24T00:35:00,mnr,8.18
2024-04-24T00:36:00,mnr,7.64
2024-04-24T00:37:00,mnr,7.68
2024-04-24T00:38:00,mnr,7.63
2024-04-24T00:39:00,mnr,8.70
2024-04-24T00:40:00,mnr,8.54
2024-04-24T00:41:00,mnr,9.33
2024-04-24T00:42:00,mnr,7.29
2024-04-24T00:43:00,mnr,7.39
2024-04-24T00:44:00,mnr,8.08
2024-04-24T00:45:00,mnr,7.49
2024-04-24T00:46:00,mnr,7.46
2024-04-24T00:47:00,mnr,7.39
2024-04-24T00:48:00,mnr,8.35
2024-04-24T00:49:00,mnr,7.30
2024-04-24T00:50:00,mnr,7.33
2024-04-24T00:51:00,mnr,9.11
2024-04-24T00:52:00,mnr,8.54
2024-04-24T00:53:00,mnr,7.42
2024-04-24T00:54:00,mnr,7.36
2024-04-24T00:55:00,mnr,7.39
2024-04-24T00:56:00,mnr,7.31
2024-04-24T00:57:00,mnr,7.45
2024-04-24T00:58:00,mnr,7.20
2024-04-24T00:59:00,mnr,7.07
2024-04-24T01:00:00,mnr,7.59
2024-04-24T01:01:00,mnr,7.35
2024-04-24T01:02:00,mnr,8.02
2024-04-24T01:03:00,mnr,7.98
2024-04-24T01:04:00,mnr,7.98
2024-04-24T01:05:00,mnr,7.99
2024-04-24T01:06:00,mnr,8.20
2024-04-24T01:07:00,mnr,8.51
2024-04-24T01:08:00,mnr,8.50
2024-04-24T01:09:00,mnr,8.11
2024-04-24T01:10:00,mnr,8.71
2024-04-24T01:11:00,mnr,8.08
2024-04-24T01:12:00,mnr,7.95
2024-04-24T01:13:00,mnr,7.68
2024-04-24T01:14:00,mnr,7.70
2024-04-24T01:15:00,mnr,7.15
2024-04-24T01:16:00,mnr,7.17
2024-04-24T01:17:00,mnr,7.81
2024-04-24T01:18:00,mnr,7.18
2024-04-24T01:19:00,mnr,7.18
2024-04-24T01:20:00,mnr,6.77
2024-04-24T01:21:00,mnr,7.01
2024-04-24T01:22:00,mnr,7.88
2024-04-24T01:23:00,mnr,6.76
2024-04-24T01:24:00,mnr,6.80
2024-04-24T01:25:00,mnr,6.79
2024-04-24T01:26:00,mnr,6.80
2024-04-24T01:27:00,mnr,6.75
2024-04-24T01:28:00,mnr,6.21
2024-04-24T01:29:00,mnr,6.22
2024-04-24T01:30:00,mnr,6.64
2024-04-24T01:31:00,mnr,5.98
2024-04-24T01:32:00,mnr,5.97
2024-04-24T01:33:00,mnr,6.48
2024-04-24T01:34:00,mnr,5.95
2024-04-24T01:35:00,mnr,6.02
2024-04-24T01:36:00,mnr,6.08
2024-04-24T01:37:00,mnr,6.07
2024-04-24T01:38:00,mnr,6.00
2024-04-24T01:39:00,mnr,6.06
2024-04-24T01:40:00,mnr,6.62
2024-04-24T01:41:00,mnr,5.95
2024-04-24T01:42:00,mnr,5.99
2024-04-24T01:43:00,mnr,5.95
2024-04-24T01:44:00,mnr,5.95
2024-04-24T01:45:00,mnr,5.91
2024-04-24T01:46:00,mnr,5.92
2024-04-24T01:47:00,mnr,5.90
2024-04-24T01:48:00,mnr,5.88
2024-04-24T01:49:00,mnr,5.27
2024-04-24T01:50:00,mnr,5.27
2024-04-24T01:51:00,mnr,6.03
2024-04-24T01:52:00,mnr,5.62
2024-04-24T01:53:00,mnr,5.36
2024-04-24T01:54:00,mnr,5.13
2024-04-24T01:55:00,mnr,5.09
2024-04-24T01:56:00,mnr,5.74
2024-04-24T01:57:00,mnr,5.07
2024-04-24T01:58:00,mnr,5.05
2024-04-24T01:59:00,mnr,5.42
2024-04-24T02:00:00,mnr,5.53
2024-04-24T02:01:00,mnr,5.57
2024-04-24T02:02:00,mnr,6.01
2024-04-24T02:03:00,mnr,5.50
2024-04-24T02:04:00,mnr,5.56
2024-04-24T02:05:00,mnr,5.62
2024-04-24T02:06:00,mnr,5.63
2024-04-24T02:07:00,mnr,5.01
2024-04-24T02:08:00,mnr,5.04
2024-04-24T02:09:00,mnr,4.98
2024-04-24T02:10:00,mnr,4.91
2024-04-24T02:11:00,mnr,4.97
2024-04-24T02:12:00,mnr,4.97
2024-04-24T02:13:00,mnr,6.23
2024-04-24T02:14:00,mnr,5.00
2024-04-24T02:15:00,mnr,4.84
2024-04-24T02:16:00,mnr,4.83
2024-04-24T02:17:00,mnr,5.52
2024-04-24T02:18:00,mnr,4.83
2024-04-24T02:19:00,mnr,4.82
2024-04-24T02:20:00,mnr,4.79
2024-04-24T02:21:00,mnr,4.74
2024-04-24T02:22:00,mnr,4.76
2024-04-24T02:23:00,mnr,5.99
2024-04-24T02:24:00,mnr,4.89
2024-04-24T02:25:00,mnr,4.84
2024-04-24T02:26:00,mnr,5.39
2024-04-24T02:27:00,mnr,4.81
2024-04-24T02:28:00,mnr,4.97
2024-04-24T02:29:00,mnr,5.45
2024-04-24T02:30:00,mnr,5.41
2024-04-24T02:31:00,mnr,6.30
2024-04-24T02:32:00,mnr,6.42
2024-04-24T02:33:00,mnr,6.32
2024-04-24T02:34:00,mnr,6.40
2024-04-24T02:35:00,mnr,6.42
2024-04-24T02:36:00,mnr,6.39
2024-04-24T02:37:00,mnr,6.77
2024-04-24T02:38:00,mnr,6.61
2024-04-24T02:39:00,mnr,6.44
2024-04-24T02:40:00,mnr,6.41
2024-04-24T02:41:00,mnr,6.35
2024-04-24T02:42:00,mnr,6.33
2024-04-24T02:43:00,mnr,6.38
2024-04-24T02:44:00,mnr,5.96
2024-04-24T02:45:00,mnr,5.56
2024-04-24T02:46:00,mnr,5.16
2024-04-24T02:47:00,mnr,5.11
2024-04-24T02:48:00,mnr,5.75
2024-04-24T02:49:00,mnr,5.14
2024-04-24T02:50:00,mnr,5.13
2024-04-24T02:51:00,mnr,5.14
2024-04-24T02:52:00,mnr,5.73
2024-04-24T02:53:00,mnr,5.11
2024-04-24T02:54:00,mnr,5.14
2024-04-24T02:55:00,mnr,5.14
2024-04-24T02:56:00,mnr,5.00
2024-04-24T02:57:00,mnr,5.01
2024-04-24T02:58:00,mnr,5.67
2024-04-24T02:59:00,mnr,5.73
2024-04-24T03:00:00,mnr,5.82
2024-04-24T03:01:00,mnr,5.12
2024-04-24T03:02:00,mnr,5.07
2024-04-24T03:03:00,mnr,5.14
2024-04-24T03:04:00,mnr,5.18
2024-04-24T03:05:00,mnr,6.39
2024-04-24T03:06:00,mnr,5.17
2024-04-24T03:07:00,mnr,5.75
2024-04-24T03:08:00,mnr,5.20
2024-04-24T03:09:00,mnr,4.54
2024-04-24T03:10:00,mnr,4.60
2024-04-24T03:11:00,mnr,4.27
2024-04-24T03:12:00,mnr,4.96
2024-04-24T03:13:00,mnr,4.29
2024-04-24T03:14:00,mnr,4.24
2024-04-24T03:15:00,mnr,4.54
2024-04-24T03:16:00,mnr,4.22
2024-04-24T03:17:00,mnr,4.59
2024-04-24T03:18:00,mnr,4.17
2024-04-24T03:19:00,mnr,4.69
2024-04-24T03:20:00,mnr,4.10
2024-04-24T03:21:00,mnr,4.11
2024-04-24T03:22:00,mnr,4.18
2024-04-24T03:23:00,mnr,4.79
2024-04-24T03:24:00,mnr,4.60
2024-04-24T03:25:00,mnr,5.18
2024-04-24T03:26:00,mnr,4.51
2024-04-24T03:27:00,mnr,4.70
2024-04-24T03:28:00,mnr,4.67
2024-04-24T03:29:00,mnr,4.70
2024-04-24T03:30:00,mnr,5.32
2024-04-24T03:31:00,mnr,4.67
2024-04-24T03:32:00,mnr,5.29
2024-04-24T03:33:00,mnr,5.04
2024-04-24T03:34:00,mnr,4.65
2024-04-24T03:35:00,mnr,4.74
2024-04-24T03:36:00,mnr,4.70
2024-04-24T03:37:00,mnr,4.72
2024-04-24T03:38:00,mnr,5.27
2024-04-24T03:39:00,mnr,5.39
2024-04-24T03:40:00,mnr,4.76
2024-04-24T03:41:00,mnr,4.80
2024-04-24T03:42:00,mnr,5.00
2024-04-24T03:43:00,mnr,4.76
2024-04-24T03:44:00,mnr,4.83
2024-04-24T03:45:00,mnr,4.75
2024-04-24T03:46:00,mnr,4.83
2024-04-24T03:47:00,mnr,4.92
2024-04-24T03:48:00,mnr,5.00
2024-04-24T03:49:00,mnr,4.92
2024-04-24T03:50:00,mnr,4.89
2024-04-24T03:51:00,mnr,4.89
2024-04-24T03:52:00,mnr,4.91
2024-04-24T03:53:00,mnr,5.00
2024-04-24T03:54:00,mnr,4.92
2024-04-24T03:55:00,mnr,5.29
2024-04-24T03:56:00,mnr,5.66
2024-04-24T03:57:00,mnr,4.92
2024-04-24T03:58:00,mnr,5.60
2024-04-24T03:59:00,mnr,5.47
2024-04-24T04:00:00,mnr,5.00
2024-04-24T04:01:00,mnr,4.98
2024-04-24T04:02:00,mnr,5.01
2024-04-24T04:03:00,mnr,4.93
2024-04-24T04:04:00,mnr,5.40
2024-04-24T04:05:00,mnr,5.20
2024-04-24T04:06:00,mnr,4.89
2024-04-24T04:07:00,mnr,5.48
2024-04-24T04:08:00,mnr,4.89
2024-04-24T04:09:00,mnr,4.91
2024-04-24T04:10:00,mnr,4.44
2024-04-24T04:11:00,mnr,4.35
2024-04-24T04:12:00,mnr,4.40
2024-04-24T04:13:00,mnr,4.31
2024-04-24T04:14:00,mnr,4.35
2024-04-24T04:15:00,mnr,5.03
2024-04-24T04:16:00,mnr,4.41
2024-04-24T04:17:00,mnr,4.29
2024-04-24T04:18:00,mnr,5.02
2024-04-24T04:19:00,mnr,4.24
2024-04-24T04:20:00,mnr,4.22
2024-04-24T04:21:00,mnr,4.26
2024-04-24T04:22:00,mnr,4.87
2024-04-24T04:23:00,mnr,4.18
2024-04-24T04:24:00,mnr,5.37
2024-04-24T04:25:00,mnr,4.19
2024-04-24T04:26:00,mnr,4.13
2024-04-24T04:27:00,mnr,4.06
2024-04-24T04:28:00,mnr,4.20
2024-04-24T04:29:00,mnr,4.33
2024-04-24T04:30:00,mnr,4.21
2024-04-24T04:31:00,mnr,4.16
2024-04-24T04:32:00,mnr,4.14
2024-04-24T04:33:00,mnr,4.16
2024-04-24T04:34:00,mnr,4.15
2024-04-24T04:35:00,mnr,4.20
2024-04-24T04:36:00,mnr,4.15
2024-04-24T04:37:00,mnr,5.39
2024-04-24T04:38:00,mnr,4.15
2024-04-24T04:39:00,mnr,4.08
2024-04-24T04:40:00,mnr,4.09
2024-04-24T04:41:00,mnr,4.16
2024-04-24T04:42:00,mnr,4.79
2024-04-24T04:43:00,mnr,5.35
2024-04-24T04:44:00,mnr,4.15
2024-04-24T04:45:00,mnr,4.14
2024-04-24T04:46:00,mnr,4.56
2024-04-24T04:47:00,mnr,4.28
2024-04-24T04:48:00,mnr,4.73
2024-04-24T04:49:00,mnr,4.38
2024-04-24T04:50:00,mnr,4.76
2024-04-24T04:51:00,mnr,5.41
2024-04-24T04:52:00,mnr,4.78
2024-04-24T04:53:00,mnr,4.81
2024-04-24T04:54:00,mnr,4.79
2024-04-24T04:55:00,mnr,4.81
2024-04-24T04:56:00,mnr,4.78
2024-04-24T04:57:00,mnr,4.78
2024-04-24T04:58:00,mnr,5.43
2024-04-24T04:59:00,mnr,4.81
2024-04-24T05:00:00,mnr,4.93
2024-04-24T05:01:00,mnr,4.80
2024-04-24T05:02:00,mnr,4.65
2024-04-24T05:03:00,mnr,4.78
2024-04-24T05:04:00,mnr,4.62
2024-04-24T05:05:00,mnr,4.76
2024-04-24T05:06:00,mnr,4.72
2024-04-24T05:07:00,mnr,5.31
2024-04-24T05:08:00,mnr,4.67
2024-04-24T05:09:00,mnr,4.70
2024-04-24T05:10:00,mnr,4.69
2024-04-24T05:11:00,mnr,5.79
2024-04-24T05:12:00,mnr,5.43
2024-04-24T05:13:00,mnr,4.83
2024-04-24T05:14:00,mnr,5.57
2024-04-24T05:15:00,mnr,4.81
2024-04-24T05:16:00,mnr,4.74
2024-04-24T05:17:00,mnr,4.73
2024-04-24T05:18:00,mnr,4.76
2024-04-24T05:19:00,mnr,5.38
2024-04-24T05:20:00,mnr,5.41
2024-04-24T05:21:00,mnr,4.80
2024-04-24T05:22:00,mnr,4.85
2024-04-24T05:23:00,mnr,4.80
2024-04-24T05:24:00,mnr,4.82
2024-04-24T05:25:00,mnr,4.79
2024-04-24T05:26:00,mnr,6.00
2024-04-24T05:27:00,mnr,5.26
2024-04-24T05:28:00,mnr,4.82
2024-04-24T05:29:00,mnr,4.73
2024-04-24T05:30:00,mnr,4.73
2024-04-24T05:31:00,mnr,4.77
2024-04-24T05:32:00,mnr,5.14
2024-04-24T05:33:00,mnr,4.76
2024-04-24T05:34:00,mnr,5.39
2024-04-24T05:35:00,mnr,4.79
2024-04-24T05:36:00,mnr,4.96
2024-04-24T05:37:00,mnr,4.25
2024-04-24T05:38:00,mnr,5.76
2024-04-24T05:39:00,mnr,4.24
2024-04-24T05:40:00,mnr,4.82
2024-04-24T05:41:00,mnr,4.19
2024-04-24T05:42:00,mnr,4.13
2024-04-24T05:43:00,mnr,4.13
2024-04-24T05:44:00,mnr,4.22
2024-04-24T05:45:00,mnr,4.19
2024-04-24T05:46:00,mnr,4.15
2024-04-24T05:47:00,mnr,4.72
2024-04-24T05:48:00,mnr,5.33
2024-04-24T05:49:00,mnr,6.17
2024-04-24T05:50:00,mnr,6.50
2024-04-24T05:51:00,mnr,6.39
2024-04-24T05:52:00,mnr,7.99
2024-04-24T05:53:00,mnr,6.59
2024-04-24T05:54:00,mnr,6.69
2024-04-24T05:55:00,mnr,6.67
2024-04-24T05:56:00,mnr,6.74
2024-04-24T05:57:00,mnr,6.77
2024-04-24T05:58:00,mnr,6.68
2024-04-24T05:59:00,mnr,6.82
2024-04-24T06:00:00,mnr,6.15
2024-04-24T06:01:00,mnr,7.04
2024-04-24T06:02:00,mnr,9.42
2024-04-24T06:03:00,mnr,9.80
2024-04-24T06:04:00,mnr,10.71
2024-04-24T06:05:00,mnr,11.58
2024-04-24T06:06:00,mnr,13.40
2024-04-24T06:07:00,mnr,15.55
2024-04-24T06:08:00,mnr,13.93
2024-04-24T06:09:00,mnr,13.26
2024-04-24T06:10:00,mnr,13.09
2024-04-24T06:11:00,mnr,12.99
2024-04-24T06:12:00,mnr,13.57
2024-04-24T06:13:00,mnr,12.96
2024-04-24T06:14:00,mnr,12.85
2024-04-24T06:15:00,mnr,14.92
2024-04-24T06:16:00,mnr,13.89
2024-04-24T06:17:00,mnr,14.48
2024-04-24T06:18:00,mnr,14.48
2024-04-24T06:19:00,mnr,14.68
2024-04-24T06:20:00,mnr,14.42
2024-04-24T06:21:00,mnr,14.52
2024-04-24T06:22:00,mnr,14.55
2024-04-24T06:23:00,mnr,14.77
2024-04-24T06:24:00,mnr,14.54
2024-04-24T06:25:00,mnr,15.18
2024-04-24T06:26:00,mnr,14.42
2024-04-24T06:27:00,mnr,15.22
2024-04-24T06:28:00,mnr,14.15
2024-04-24T06:29:00,mnr,14.57
2024-04-24T06:30:00,mnr,15.94
2024-04-24T06:31:00,mnr,14.53
2024-04-24T06:32:00,mnr,14.47
2024-04-24T06:33:00,mnr,14.40
2024-04-24T06:34:00,mnr,14.46
2024-04-24T06:35:00,mnr,14.42
2024-04-24T06:36:00,mnr,14.14
2024-04-24T06:37:00,mnr,14.40
2024-04-24T06:38:00,mnr,27.51
2024-04-24T06:39:00,mnr,14.38
2024-04-24T06:40:00,mnr,14.94
2024-04-24T06:41:00,mnr,14.87
2024-04-24T06:42:00,mnr,14.30
2024-04-24T06:43:00,mnr,14.08
2024-04-24T06:44:00,mnr,14.33
2024-04-24T06:45:00,mnr,14.40
2024-04-24T06:46:00,mnr,14.36
2024-04-24T06:47:00,mnr,14.39
2024-04-24T06:48:00,mnr,14.37
2024-04-24T06:49:00,mnr,13.72
2024-04-24T06:50:00,mnr,14.34
2024-04-24T06:51:00,mnr,14.32
2024-04-24T06:52:00,mnr,13.83
2024-04-24T06:53:00,mnr,13.72
2024-04-24T06:54:00,mnr,13.12
2024-04-24T06:55:00,mnr,13.07
2024-04-24T06:56:00,mnr,13.11
2024-04-24T06:57:00,mnr,14.31
2024-04-24T06:58:00,mnr,9.96
2024-04-24T06:59:00,mnr,13.25
2024-04-24T07:00:00,mnr,16.03
2024-04-24T07:01:00,mnr,23.77
2024-04-24T07:02:00,mnr,14.12
2024-04-24T07:03:00,mnr,13.77
2024-04-24T07:04:00,mnr,13.84
2024-04-24T07:05:00,mnr,13.60
2024-04-24T07:06:00,mnr,13.60
2024-04-24T07:07:00,mnr,13.50
2024-04-24T07:08:00,mnr,13.99
2024-04-24T07:09:00,mnr,13.98
2024-04-24T07:10:00,mnr,11.61
2024-04-24T07:11:00,mnr,13.93
2024-04-24T07:12:00,mnr,14.05
2024-04-24T07:13:00,mnr,13.93
2024-04-24T07:14:00,mnr,14.03
2024-04-24T07:15:00,mnr,14.53
2024-04-24T07:16:00,mnr,14.37
2024-04-24T07:17:00,mnr,10.92
2024-04-24T07:18:00,mnr,14.70
2024-04-24T07:19:00,mnr,14.01
2024-04-24T07:20:00,mnr,13.91
2024-04-24T07:21:00,mnr,13.95
2024-04-24T07:22:00,mnr,13.94
2024-04-24T07:23:00,mnr,13.92
2024-04-24T07:24:00,mnr,13.91
2024-04-24T07:25:00,mnr,13.89
2024-04-24T07:26:00,mnr,13.84
2024-04-24T07:27:00,mnr,13.83
2024-04-24T07:28:00,mnr,13.73
2024-04-24T07:29:00,mnr,14.45
2024-04-24T07:30:00,mnr,14.48
2024-04-24T07:31:00,mnr,15.16
2024-04-24T07:32:00,mnr,14.09
2024-04-24T07:33:00,mnr,14.10
2024-04-24T07:34:00,mnr,14.05
2024-04-24T07:35:00,mnr,14.12
2024-04-24T07:36:00,mnr,14.03
2024-04-24T07:37:00,mnr,14.69
2024-04-24T07:38:00,mnr,14.46
2024-04-24T07:39:00,mnr,14.12
2024-04-24T07:40:00,mnr,14.06
2024-04-24T07:41:00,mnr,14.06
2024-04-24T07:42:00,mnr,14.08
2024-04-24T07:43:00,mnr,14.70
2024-04-24T07:44:00,mnr,14.03
2024-04-24T07:45:00,mnr,14.11
2024-04-24T07:46:00,mnr,13.99
2024-04-24T07:47:00,mnr,13.84
2024-04-24T07:48:00,mnr,14.13
2024-04-24T07:49:00,mnr,13.77
2024-04-24T07:50:00,mnr,15.11
2024-04-24T07:51:00,mnr,15.28
2024-04-24T07:52:00,mnr,15.04
2024-04-24T07:53:00,mnr,15.78
2024-04-24T07:54:00,mnr,14.36
2024-04-24T07:55:00,mnr,14.59
2024-04-24T07:56:00,mnr,15.08
2024-04-24T07:57:00,mnr,15.22
2024-04-24T07:58:00,mnr,15.85
2024-04-24T07:59:00,mnr,15.30
2024-04-24T08:00:00,mnr,15.63
2024-04-24T08:01:00,mnr,15.25
2024-04-24T08:02:00,mnr,15.91
2024-04-24T08:03:00,mnr,15.48
2024-04-24T08:04:00,mnr,16.04
2024-04-24T08:05:00,mnr,15.77
2024-04-24T08:06:00,mnr,17.91
2024-04-24T08:07:00,mnr,17.31
2024-04-24T08:08:00,mnr,17.91
2024-04-24T08:09:00,mnr,17.57
2024-04-24T08:10:00,mnr,16.56
2024-04-24T08:11:00,mnr,16.71
2024-04-24T08:12:00,mnr,16.50
2024-04-24T08:13:00,mnr,15.92
2024-04-24T08:14:00,mnr,15.94
2024-04-24T08:15:00,mnr,16.53
2024-04-24T08:16:00,mnr,16.34
2024-04-24T08:17:00,mnr,15.27
2024-04-24T08:18:00,mnr,16.32
2024-04-24T08:19:00,mnr,15.11
2024-04-24T08:20:00,mnr,14.99
2024-04-24T08:21:00,mnr,15.89
2024-04-24T08:22:00,mnr,15.96
2024-04-24T08:23:00,mnr,15.92
2024-04-24T08:24:00,mnr,15.94
2024-04-24T08:25:00,mnr,15.94
2024-04-24T08:26:00,mnr,16.09
2024-04-24T08:27:00,mnr,16.28
2024-04-24T08:28:00,mnr,16.36
2024-04-24T08:29:00,mnr,16.64
2024-04-24T08:30:00,mnr,16.77
2024-04-24T08:31:00,mnr,16.73
2024-04-24T08:32:00,mnr,17.73
2024-04-24T08:33:00,mnr,17.19
2024-04-24T08:34:00,mnr,18.39
2024-04-24T08:35:00,mnr,17.00
2024-04-24T08:36:00,mnr,17.23
2024-04-24T08:37:00,mnr,16.83
2024-04-24T08:38:00,mnr,16.95
2024-04-24T08:39:00,mnr,27.16
2024-04-24T08:40:00,mnr,16.85
2024-04-24T08:41:00,mnr,16.89
2024-04-24T08:42:00,mnr,17.67
2024-04-24T08:43:00,mnr,17.03
2024-04-24T08:44:00,mnr,16.97
2024-04-24T08:45:00,mnr,16.92
2024-04-24T08:46:00,mnr,17.66
2024-04-24T08:47:00,mnr,17.06
2024-04-24T08:48:00,mnr,16.76
2024-04-24T08:49:00,mnr,16.93
2024-04-24T08:50:00,mnr,13.31
2024-04-24T08:51:00,mnr,16.93
2024-04-24T08:52:00,mnr,17.04
2024-04-24T08:53:00,mnr,18.13
2024-04-24T08:54:00,mnr,17.88
2024-04-24T08:55:00,mnr,17.20
2024-04-24T08:56:00,mnr,16.49
2024-04-24T08:57:00,mnr,16.80
2024-04-24T08:58:00,mnr,16.02
2024-04-24T08:59:00,mnr,16.16
2024-04-24T09:00:00,mnr,16.74
2024-04-24T09:01:00,mnr,17.73
2024-04-24T09:02:00,mnr,16.75
2024-04-24T09:03:00,mnr,16.80
2024-04-24T09:04:00,mnr,16.67
2024-04-24T09:05:00,mnr,16.70
2024-04-24T09:06:00,mnr,16.76
2024-04-24T09:07:00,mnr,16.71
2024-04-24T09:08:00,mnr,17.43
2024-04-24T09:09:00,mnr,17.44
2024-04-24T09:10:00,mnr,17.33
2024-04-24T09:11:00,mnr,16.68
2024-04-24T09:12:00,mnr,16.70
2024-04-24T09:13:00,mnr,17.27
2024-04-24T09:14:00,mnr,16.65
2024-04-24T09:15:00,mnr,17.18
2024-04-24T09:16:00,mnr,17.33
2024-04-24T09:17:00,mnr,16.60
2024-04-24T09:18:00,mnr,16.53
2024-04-24T09:19:00,mnr,16.66
2024-04-24T09:20:00,mnr,16.83
2024-04-24T09:21:00,mnr,18.41
2024-04-24T09:22:00,mnr,16.67
2024-04-24T09:23:00,mnr,17.18
2024-04-24T09:24:00,mnr,16.65
2024-04-24T09:25:00,mnr,16.64
2024-04-24T09:26:00,mnr,17.96
2024-04-24T09:27:00,mnr,18.37
2024-04-24T09:28:00,mnr,17.22
2024-04-24T09:29:00,mnr,16.48
2024-04-24T09:30:00,mnr,16.34
2024-04-24T09:31:00,mnr,16.70
2024-04-24T09:32:00,mnr,16.38
2024-04-24T09:33:00,mnr,16.42
2024-04-24T09:34:00,mnr,17.75
2024-04-24T09:35:00,mnr,16.19
2024-04-24T09:36:00,mnr,16.20
2024-04-24T09:37:00,mnr,16.23
2024-04-24T09:38:00,mnr,17.14
2024-04-24T09:39:00,mnr,14.99
2024-04-24T09:40:00,mnr,18.36
2024-04-24T09:41:00,mnr,18.62
2024-04-24T09:42:00,mnr,18.17
2024-04-24T09:43:00,mnr,18.53
2024-04-24T09:44:00,mnr,15.64
2024-04-24T09:45:00,mnr,20.89
2024-04-24T09:46:00,mnr,20.63
2024-04-24T09:47:00,mnr,20.63
2024-04-24T09:48:00,mnr,19.52
2024-04-24T09:49:00,mnr,19.89
2024-04-24T09:50:00,mnr,19.91
2024-04-24T09:51:00,mnr,19.84
2024-04-24T09:52:00,mnr,21.43
2024-04-24T09:53:00,mnr,19.59
2024-04-24T09:54:00,mnr,19.36
2024-04-24T09:55:00,mnr,19.80
2024-04-24T09:56:00,mnr,17.72
2024-04-24T09:57:00,mnr,19.96
2024-04-24T09:58:00,mnr,31.69
2024-04-24T09:59:00,mnr,19.54
2024-04-24T10:00:00,mnr,20.60
2024-04-24T10:01:00,mnr,20.20
2024-04-24T10:02:00,mnr,21.04
2024-04-24T10:03:00,mnr,19.83
2024-04-24T10:04:00,mnr,16.64
2024-04-24T10:05:00,mnr,19.82
2024-04-24T10:06:00,mnr,20.20
2024-04-24T10:07:00,mnr,20.03
2024-04-24T10:08:00,mnr,20.07
2024-04-24T10:09:00,mnr,20.56
2024-04-24T10:10:00,mnr,20.17
2024-04-24T10:11:00,mnr,21.82
2024-04-24T10:12:00,mnr,21.53
2024-04-24T10:13:00,mnr,20.07
2024-04-24T10:14:00,mnr,21.60
2024-04-24T10:15:00,mnr,20.26
2024-04-24T10:16:00,mnr,20.48
2024-04-24T10:17:00,mnr,20.78
2024-04-24T10:18:00,mnr,20.34
2024-04-24T10:19:00,mnr,21.07
2024-04-24T10:20:00,mnr,20.62
2024-04-24T10:21:00,mnr,21.66
2024-04-24T10:22:00,mnr,20.64
2024-04-24T10:23:00,mnr,21.50
2024-04-24T10:24:00,mnr,20.77
2024-04-24T10:25:00,mnr,20.85
2024-04-24T10:26:00,mnr,21.70
2024-04-24T10:27:00,mnr,21.36
2024-04-24T10:28:00,mnr,21.94
2024-04-24T10:29:00,mnr,20.40
2024-04-24T10:30:00,mnr,21.25
2024-04-24T10:31:00,mnr,21.54
2024-04-24T10:32:00,mnr,20.61
2024-04-24T10:33:00,mnr,20.44
2024-04-24T10:34:00,mnr,21.43
2024-04-24T10:35:00,mnr,21.75
2024-04-24T10:36:00,mnr,21.48
2024-04-24T10:37:00,mnr,20.92
2024-04-24T10:38:00,mnr,20.29
2024-04-24T10:39:00,mnr,19.84
2024-04-24T10:40:00,mnr,19.65
2024-04-24T10:41:00,mnr,19.19
2024-04-24T10:42:00,mnr,19.23
2024-04-24T10:43:00,mnr,20.01
2024-04-24T10:44:00,mnr,19.95
2024-04-24T10:45:00,mnr,19.94
2024-04-24T10:46:00,mnr,19.02
2024-04-24T10:47:00,mnr,18.76
2024-04-24T10:48:00,mnr,18.88
2024-04-24T10:49:00,mnr,18.79
2024-04-24T10:50:00,mnr,18.94
2024-04-24T10:51:00,mnr,19.16
2024-04-24T10:52:00,mnr,19.64
2024-04-24T10:53:00,mnr,19.89
2024-04-24T10:54:00,mnr,19.04
2024-04-24T10:55:00,mnr,20.57
2024-04-24T10:56:00,mnr,18.94
2024-04-24T10:57:00,mnr,19.23
2024-04-24T10:58:00,mnr,18.79
2024-04-24T10:59:00,mnr,18.47
2024-04-24T11:00:00,mnr,18.37
2024-04-24T11:01:00,mnr,18.51
2024-04-24T11:02:00,mnr,19.85
2024-04-24T11:03:00,mnr,18.90
2024-04-24T11:04:00,mnr,18.63
2024-04-24T11:05:00,mnr,21.31
2024-04-24T11:06:00,mnr,21.19
2024-04-24T11:07:00,mnr,19.13
2024-04-24T11:08:00,mnr,30.20
2024-04-24T11:09:00,mnr,19.96
2024-04-24T11:10:00,mnr,31.31
2024-04-24T11:11:00,mnr,20.25
2024-04-24T11:12:00,mnr,19.28
2024-04-24T11:13:00,mnr,19.11
2024-04-24T11:14:00,mnr,17.29
2024-04-24T11:15:00,mnr,19.05
2024-04-24T11:16:00,mnr,18.52
2024-04-24T11:17:00,mnr,20.53
2024-04-24T11:18:00,mnr,19.14
2024-04-24T11:19:00,mnr,19.75
2024-04-24T11:20:00,mnr,19.26
2024-04-24T11:21:00,mnr,19.28
2024-04-24T11:22:00,mnr,19.63
2024-04-24T11:23:00,mnr,19.75
2024-04-24T11:24:00,mnr,19.35
2024-04-24T11:25:00,mnr,21.14
2024-04-24T11:26:00,mnr,20.93
2024-04-24T11:27:00,mnr,19.47
2024-04-24T11:28:00,mnr,19.07
2024-04-24T11:29:00,mnr,19.06
2024-04-24T11:30:00,mnr,19.16
2024-04-24T11:31:00,mnr,19.47
2024-04-24T11:32:00,mnr,19.68
2024-04-24T11:33:00,mnr,18.97
2024-04-24T11:34:00,mnr,19.34
2024-04-24T11:35:00,mnr,19.11
2024-04-24T11:36:00,mnr,19.06
2024-04-24T11:37:00,mnr,17.12
2024-04-24T11:38:00,mnr,19.27
2024-04-24T11:39:00,mnr,19.30
2024-04-24T11:40:00,mnr,19.13
2024-04-24T11:41:00,mnr,21.13
2024-04-24T11:42:00,mnr,19.10
2024-04-24T11:43:00,mnr,19.10
2024-04-24T11:44:00,mnr,19.10
2024-04-24T11:45:00,mnr,19.06
2024-04-24T11:46:00,mnr,19.10
2024-04-24T11:47:00,mnr,19.54
2024-04-24T11:48:00,mnr,19.10
2024-04-24T11:49:00,mnr,19.16
2024-04-24T11:50:00,mnr,19.09
2024-04-24T11:51:00,mnr,19.18
2024-04-24T11:52:00,mnr,19.32
2024-04-24T11:53:00,mnr,20.62
2024-04-24T11:54:00,mnr,19.48
2024-04-24T11:55:00,mnr,17.92
2024-04-24T11:56:00,mnr,19.30
2024-04-24T11:57:00,mnr,19.19
2024-04-24T11:58:00,mnr,19.55
2024-04-24T11:59:00,mnr,19.38
2024-04-24T12:00:00,mnr,19.40
2024-04-24T12:01:00,mnr,19.33
2024-04-24T12:02:00,mnr,18.95
2024-04-24T12:03:00,mnr,19.12
2024-04-24T12:04:00,mnr,19.01
2024-04-24T12:05:00,mnr,19.00
2024-04-24T12:06:00,mnr,19.09
2024-04-24T12:07:00,mnr,22.08
2024-04-24T12:08:00,mnr,21.00
2024-04-24T12:09:00,mnr,20.02
2024-04-24T12:10:00,mnr,32.72
2024-04-24T12:11:00,mnr,21.64
2024-04-24T12:12:00,mnr,20.69
2024-04-24T12:13:00,mnr,20.05
2024-04-24T12:14:00,mnr,19.70
2024-04-24T12:15:00,mnr,20.29
2024-04-24T12:16:00,mnr,19.44
2024-04-24T12:17:00,mnr,19.46
2024-04-24T12:18:00,mnr,19.43
2024-04-24T12:19:00,mnr,19.59
2024-04-24T12:20:00,mnr,19.46
2024-04-24T12:21:00,mnr,21.00
2024-04-24T12:22:00,mnr,20.22
2024-04-24T12:23:00,mnr,20.13
2024-04-24T12:24:00,mnr,20.06
2024-04-24T12:25:00,mnr,20.61
2024-04-24T12:26:00,mnr,19.97
2024-04-24T12:27:00,mnr,20.01
2024-04-24T12:28:00,mnr,19.94
2024-04-24T12:29:00,mnr,19.58
2024-04-24T12:30:00,mnr,19.94
2024-04-24T12:31:00,mnr,19.47
2024-04-24T12:32:00,mnr,19.84
2024-04-24T12:33:00,mnr,18.80
2024-04-24T12:34:00,mnr,19.53
2024-04-24T12:35:00,mnr,19.51
2024-04-24T12:36:00,mnr,19.03
2024-04-24T12:37:00,mnr,21.18
2024-04-24T12:38:00,mnr,20.13
2024-04-24T12:39:00,mnr,20.92
2024-04-24T12:40:00,mnr,21.00
2024-04-24T12:41:00,mnr,20.78
2024-04-24T12:42:00,mnr,20.44
2024-04-24T12:43:00,mnr,21.44
2024-04-24T12:44:00,mnr,20.69
2024-04-24T12:45:00,mnr,20.87
2024-04-24T12:46:00,mnr,19.88
2024-04-24T12:47:00,mnr,29.82
2024-04-24T12:48:00,mnr,29.72
2024-04-24T12:49:00,mnr,19.81
2024-04-24T12:50:00,mnr,19.28
2024-04-24T12:51:00,mnr,20.86
2024-04-24T12:52:00,mnr,19.74
2024-04-24T12:53:00,mnr,21.17
2024-04-24T12:54:00,mnr,21.88
2024-04-24T12:55:00,mnr,19.65
2024-04-24T12:56:00,mnr,20.13
2024-04-24T12:57:00,mnr,19.67
2024-04-24T12:58:00,mnr,19.60
2024-04-24T12:59:00,mnr,20.78
2024-04-24T13:00:00,mnr,20.36
2024-04-24T13:01:00,mnr,19.57
2024-04-24T13:02:00,mnr,20.45
2024-04-24T13:03:00,mnr,19.84
2024-04-24T13:04:00,mnr,30.33
2024-04-24T13:05:00,mnr,19.80
2024-04-24T13:06:00,mnr,19.58
2024-04-24T13:07:00,mnr,19.35
2024-04-24T13:08:00,mnr,20.25
2024-04-24T13:09:00,mnr,19.66
2024-04-24T13:10:00,mnr,19.71
2024-04-24T13:11:00,mnr,19.75
2024-04-24T13:12:00,mnr,19.73
2024-04-24T13:13:00,mnr,20.18
2024-04-24T13:14:00,mnr,19.96
2024-04-24T13:15:00,mnr,19.87
2024-04-24T13:16:00,mnr,20.10
2024-04-24T13:17:00,mnr,19.84
2024-04-24T13:18:00,mnr,20.19
2024-04-24T13:19:00,mnr,21.01
2024-04-24T13:20:00,mnr,18.75
2024-04-24T13:21:00,mnr,19.19
2024-04-24T13:22:00,mnr,18.59
2024-04-24T13:23:00,mnr,18.64
2024-04-24T13:24:00,mnr,18.60
2024-04-24T13:25:00,mnr,18.58
2024-04-24T13:26:00,mnr,18.79
2024-04-24T13:27:00,mnr,19.04
2024-04-24T13:28:00,mnr,18.81
2024-04-24T13:29:00,mnr,18.95
2024-04-24T13:30:00,mnr,19.22